Date,TemperatureHighF,TemperatureAvgF,TemperatureLowF,DewpointHighF,DewpointAvgF,DewpointLowF,HumidityHigh,HumidityAvg,HumidityLow,PressureMaxIn,PressureMinIn,WindSpeedMaxMPH,WindSpeedAvgMPH,GustSpeedMaxMPH,PrecipitationSumIn
2013-1-1,55.4,46.8,38.0,54.6,44.5,34.2,97,92,82,30.26,29.97,12,3,17,0.07
2013-1-2,41.8,36.0,31.4,34.2,29.5,27.3,88,78,61,30.36,30.25,9,3,0,0.00
2013-1-3,42.4,36.8,29.7,32.1,29.5,26.3,87,75,64,30.49,30.35,9,2,0,0.00
2013-1-4,40.8,37.1,32.9,37.3,34.7,31.0,96,91,69,30.55,30.41,6,1,0,0.20
2013-1-5,53.4,42.7,37.5,43.2,39.0,36.5,96,88,64,30.44,30.25,7,1,0,0.02
2013-1-6,56.0,45.0,35.4,39.0,33.8,29.4,95,68,37,30.43,30.31,12,3,14,0.01
2013-1-7,53.7,44.9,36.4,39.3,32.9,27.6,73,63,48,30.35,30.09,9,1,0,0.00
2013-1-8,50.2,47.5,44.8,49.4,45.8,39.2,97,94,73,30.09,29.89,12,2,0,0.99
2013-1-9,56.8,53.3,48.6,54.9,52.3,47.8,98,96,92,30.03,29.84,15,4,17,1.32
2013-1-10,63.4,52.7,44.7,52.2,45.7,41.6,97,79,51,30.05,29.98,20,4,22,0.01
2013-1-11,70.8,58.9,50.1,63.3,52.7,42.5,95,80,64,30.01,29.81,25,10,30,0.00
2013-1-12,65.3,65.2,65.1,64.1,63.7,63.3,96,95,94,29.83,29.80,13,7,18,0.00
2013-1-14,47.9,42.2,37.3,30.8,29.3,25.9,72,60,48,30.27,30.14,15,5,18,0.00
2013-1-15,39.2,34.3,32.0,32.9,30.7,24.7,95,87,69,30.29,30.12,13,4,17,0.03
2013-1-16,50.1,38.1,28.0,24.9,20.6,15.1,75,52,25,30.39,30.23,16,4,18,0.00
2013-1-17,62.0,49.1,36.9,37.1,30.5,18.7,70,50,34,30.51,30.31,12,3,13,0.00
2013-1-18,63.3,50.8,39.8,36.3,32.8,30.9,71,52,32,30.52,30.33,12,3,13,0.00
2013-1-19,66.3,52.3,41.5,47.4,42.1,33.7,96,70,45,30.34,30.16,17,7,23,0.00
2013-1-20,72.3,58.0,47.4,50.6,45.4,41.3,90,66,35,30.25,30.09,14,5,16,0.00
2013-1-21,69.8,57.5,48.0,51.0,47.1,41.6,88,70,48,30.24,30.12,13,3,16,0.00
2013-1-22,70.1,55.9,43.5,51.3,44.7,37.2,80,67,50,30.31,30.20,17,3,20,0.00
2013-1-23,72.5,59.8,49.3,57.5,52.3,47.6,96,78,57,30.33,30.19,18,6,22,0.00
2013-1-24,76.6,65.8,59.1,61.2,58.7,54.6,94,79,55,30.23,30.08,18,8,24,0.00
2013-1-25,78.3,65.7,54.8,61.4,58.3,50.4,93,79,53,30.13,30.01,23,8,25,0.00
2013-1-26,61.9,53.6,48.4,57.9,51.2,46.8,97,92,83,30.18,30.07,7,1,0,0.00
2013-1-27,75.5,65.2,54.8,63.9,60.6,53.4,96,86,64,30.11,29.94,22,9,26,0.00
2013-1-28,73.8,69.2,66.3,65.4,64.4,63.6,92,85,72,30.00,29.85,26,10,30,0.00
2013-1-29,78.7,67.6,55.5,65.9,57.2,25.4,95,72,31,29.85,29.49,24,9,28,0.02
2013-1-30,55.5,49.6,42.9,28.9,20.5,14.7,57,32,21,30.22,29.77,33,6,33,0.00
2013-1-31,66.1,51.8,41.3,24.3,19.4,14.5,37,29,17,30.31,30.19,18,6,22,0.00
2013-2-1,68.8,55.7,41.8,42.7,34.3,22.9,67,46,29,30.35,30.17,18,5,21,0.00
2013-2-2,74.9,59.1,47.2,53.6,46.6,36.9,88,65,38,30.30,30.17,17,5,21,0.00
2013-2-3,68.7,58.5,48.4,46.4,37.6,24.5,64,47,21,30.34,30.02,13,3,16,0.00
2013-2-4,73.5,62.3,55.4,58.6,54.2,45.9,89,76,52,30.03,29.80,18,6,22,0.00
2013-2-5,75.7,62.6,51.3,53.6,47.1,39.8,84,61,28,29.98,29.85,10,3,0,0.00
2013-2-6,72.4,66.2,59.7,59.8,56.9,54.3,87,73,58,29.95,29.82,15,5,15,0.02
2013-2-7,82.0,65.6,57.1,60.2,52.3,37.0,95,68,28,30.06,29.85,14,4,17,0.00
2013-2-8,65.8,55.7,45.2,47.4,34.4,23.4,75,49,21,30.23,30.07,13,3,15,0.00
2013-2-9,65.4,55.8,50.4,64.5,51.8,31.3,97,88,43,30.11,29.77,21,6,28,0.00
2013-2-10,66.7,60.2,52.1,65.4,44.6,28.2,97,61,27,30.01,29.73,23,4,27,0.10
2013-2-11,57.3,53.3,48.3,46.6,41.6,34.4,92,65,44,30.11,29.97,17,4,21,0.01
2013-2-12,70.4,55.7,48.0,54.6,44.3,24.0,97,72,24,30.03,29.83,17,4,20,0.03
2013-2-13,59.9,47.1,35.5,39.2,32.8,25.9,86,60,28,30.17,30.03,17,4,20,0.00
2013-2-14,69.7,54.2,42.1,39.7,35.5,30.8,76,53,25,30.14,30.00,13,6,15,0.00
2013-2-15,58.6,49.5,39.6,39.4,35.6,23.9,77,59,46,30.40,30.05,15,5,19,0.00
2013-2-16,65.7,48.4,35.2,29.1,25.4,21.7,59,43,23,30.48,30.24,11,3,13,0.00
2013-2-17,68.1,56.3,46.9,49.2,34.7,25.1,73,45,31,30.24,29.96,26,11,29,0.00
2013-2-18,79.9,65.3,56.1,58.5,46.1,24.5,84,57,15,30.08,29.82,25,9,31,0.00
2013-2-19,65.1,55.2,44.5,33.6,29.5,21.3,60,39,20,30.27,30.07,17,4,18,0.00
2013-2-20,61.8,54.3,50.4,60.9,44.7,30.0,97,73,40,30.12,29.66,19,5,22,0.03
2013-2-21,75.7,65.8,57.0,63.9,41.4,16.6,97,52,11,29.86,29.55,22,7,29,0.00
2013-2-22,56.9,48.7,40.2,37.5,31.8,22.4,81,54,27,30.06,29.81,13,4,14,0.00
2013-2-23,68.9,51.3,36.1,37.5,31.7,28.0,73,50,26,30.09,29.90,11,2,12,0.00
2013-2-24,70.8,61.0,46.1,57.1,48.6,34.8,90,65,45,29.95,29.61,20,7,23,0.00
2013-2-25,60.0,53.7,44.3,58.6,36.5,19.6,97,56,22,29.83,29.53,38,11,45,0.00
2013-2-26,65.5,50.5,37.1,30.8,28.6,25.8,67,45,24,29.98,29.83,22,5,26,0.00
2013-2-27,59.5,53.1,43.8,33.9,28.2,20.4,59,39,26,30.23,30.11,15,5,20,0.00
2013-2-28,59.2,46.6,38.8,28.7,25.8,21.8,65,47,25,30.35,30.21,12,3,16,0.00
2013-3-1,66.7,56.2,41.9,27.6,22.4,15.0,46,29,16,30.29,30.13,13,4,18,0.00
2013-3-2,60.8,48.4,36.0,29.3,27.7,24.1,71,46,28,30.44,30.28,16,3,19,0.00
2013-3-3,72.5,56.8,42.2,42.0,30.5,23.3,53,38,22,30.29,29.91,25,10,28,0.00
2013-3-4,86.6,67.1,53.4,50.0,44.8,39.9,81,50,20,29.91,29.68,30,10,33,0.00
2013-3-5,67.3,55.5,45.1,54.1,27.4,12.0,70,38,14,30.37,29.73,23,7,30,0.00
2013-3-6,62.2,48.2,35.4,22.1,18.0,12.4,47,31,15,30.47,30.23,11,3,13,0.00
2013-3-7,70.6,56.4,44.2,52.7,40.6,18.6,83,58,29,30.25,30.09,20,7,21,0.00
2013-3-8,63.1,58.9,55.2,61.4,55.9,50.9,97,90,77,30.13,29.99,18,5,24,0.05
2013-3-9,70.1,63.7,59.8,65.2,61.3,57.4,96,92,83,30.02,29.63,26,10,30,0.02
2013-3-10,64.9,56.7,47.8,62.2,42.7,31.7,96,63,36,30.10,29.64,15,5,25,0.94
2013-3-11,65.9,50.4,37.1,32.1,27.1,17.8,69,44,21,30.19,30.02,16,3,16,0.00
2013-3-12,77.1,59.6,46.0,38.6,30.4,24.7,51,35,18,30.22,30.07,25,8,26,0.00
2013-3-13,73.9,60.2,48.0,38.5,35.8,31.4,61,42,26,30.43,30.22,14,3,17,0.00
2013-3-14,76.0,61.4,49.2,52.1,44.3,36.6,89,57,32,30.37,30.21,20,8,22,0.00
2013-3-15,78.2,64.8,53.7,53.9,48.3,39.6,91,60,28,30.24,29.98,24,10,26,0.00
2013-3-16,81.7,67.3,57.1,60.3,54.1,48.5,90,66,34,29.99,29.72,25,12,30,0.00
2013-3-17,82.1,70.0,63.9,61.4,59.0,56.6,86,70,45,29.78,29.63,26,7,29,0.00
2013-3-18,85.2,71.9,62.9,63.7,53.4,38.4,94,60,21,29.92,29.67,13,6,19,0.00
2013-3-19,82.3,65.3,52.1,62.1,52.0,43.6,74,63,44,29.98,29.82,16,4,20,0.00
2013-3-20,69.3,59.0,49.9,54.3,44.6,34.6,95,63,29,30.24,29.93,21,5,23,0.04
2013-3-21,73.7,62.3,53.7,58.3,50.0,37.3,84,65,49,30.05,29.59,26,9,29,0.00
2013-3-22,83.5,70.0,57.7,64.5,60.8,48.3,94,75,47,29.75,29.61,22,6,27,0.00
2013-3-23,80.5,59.6,48.5,60.0,50.8,45.3,95,75,41,29.78,29.58,11,3,0,0.00
2013-3-24,62.9,50.6,40.4,57.7,33.0,22.2,92,55,27,30.16,29.68,19,6,23,0.00
2013-3-25,56.9,45.4,32.4,25.7,20.8,14.7,63,40,20,30.40,30.16,13,4,18,0.00
2013-3-26,64.1,50.1,37.6,23.7,20.5,17.6,46,33,17,30.50,30.30,10,2,0,0.00
2013-3-27,66.5,54.0,41.2,46.6,36.1,22.3,67,51,36,30.33,30.15,21,8,22,0.00
2013-3-28,70.3,61.0,53.5,57.9,53.4,46.3,88,76,63,30.20,30.11,19,7,24,0.00
2013-3-29,74.5,66.0,58.8,58.3,56.2,54.7,90,72,53,30.16,30.03,18,7,23,0.00
2013-3-30,81.8,69.2,61.7,61.3,59.3,56.8,91,72,47,30.09,29.87,18,7,22,0.00
2013-3-31,79.0,69.3,64.7,64.5,61.3,55.5,90,77,54,29.94,29.83,19,5,22,0.01
2013-4-1,83.3,70.2,58.1,63.4,59.4,55.0,92,71,44,30.03,29.87,20,3,21,0.00
2013-4-2,74.8,65.4,59.2,64.8,61.5,57.0,96,88,70,29.96,29.80,22,5,24,3.01
2013-4-3,61.1,49.8,45.9,59.9,48.7,44.8,97,96,89,30.16,29.81,22,4,36,0.36
2013-4-4,58.6,48.6,43.6,44.8,42.6,39.1,96,81,58,30.26,30.12,15,4,17,0.00
2013-4-5,72.3,54.1,38.6,48.1,43.0,37.0,95,70,40,30.29,30.07,9,2,13,0.00
2013-4-6,78.0,63.3,50.1,57.5,52.0,45.0,91,68,48,30.08,29.84,22,8,26,0.00
2013-4-7,80.8,67.0,60.3,64.0,59.6,55.7,90,78,54,29.90,29.73,26,9,26,0.00
2013-4-8,71.9,67.1,64.5,65.8,62.9,59.4,93,86,79,29.81,29.65,22,7,22,0.00
2013-4-9,82.9,72.2,67.1,68.5,65.6,63.6,92,81,55,29.69,29.56,21,9,26,0.00
2013-4-10,72.1,54.9,41.5,67.7,50.7,40.1,95,86,70,29.94,29.59,24,7,26,0.22
2013-4-11,68.4,52.4,42.1,42.4,38.7,34.6,86,62,35,30.00,29.81,11,3,16,0.02
2013-4-12,78.2,62.3,49.4,46.3,42.1,38.1,73,51,25,30.01,29.85,13,4,13,0.00
2013-4-13,75.2,63.9,53.5,57.5,50.5,44.4,93,64,37,29.94,29.76,14,4,17,0.00
2013-4-14,86.5,70.2,57.1,64.7,59.3,53.1,93,71,44,29.82,29.58,20,7,21,0.00
2013-4-15,88.2,75.9,67.4,66.1,64.8,62.9,93,70,46,29.75,29.64,21,8,23,0.00
2013-4-16,83.7,73.8,66.0,68.0,64.9,61.6,88,75,58,29.85,29.75,22,8,32,0.00
2013-4-17,80.3,73.3,70.5,70.1,68.4,66.9,95,85,66,29.84,29.63,21,8,26,0.00
2013-4-18,72.8,60.9,47.4,70.3,52.9,36.7,94,77,47,30.08,29.60,21,7,26,0.09
2013-4-19,66.9,53.8,40.2,37.1,30.7,24.2,75,45,22,30.33,30.07,13,3,17,0.00
2013-4-20,69.7,57.2,45.7,44.5,30.9,25.6,61,39,21,30.23,29.99,16,6,21,0.00
2013-4-21,76.8,61.5,46.2,55.2,49.7,43.4,91,67,44,30.15,30.00,20,4,20,0.00
2013-4-22,80.8,67.9,55.0,60.2,56.6,53.1,94,70,46,30.09,29.85,20,8,21,0.00
2013-4-23,77.7,64.1,48.7,65.6,56.9,41.5,90,78,53,30.07,29.81,22,6,23,0.00
2013-4-24,63.4,50.5,41.8,41.5,36.9,32.0,87,62,38,30.27,30.07,19,5,19,0.00
2013-4-25,66.5,58.2,53.2,45.6,42.3,39.8,66,56,39,30.34,30.18,11,3,14,0.00
2013-4-26,74.6,65.4,56.1,68.3,60.4,41.0,97,85,46,30.19,30.00,17,5,20,0.02
2013-4-27,84.8,72.6,67.0,68.1,65.6,62.4,94,80,50,30.07,29.89,15,3,17,0.03
2013-4-28,83.8,71.8,60.8,63.6,60.7,55.5,96,71,42,30.01,29.82,12,3,16,0.00
2013-4-29,81.9,70.4,64.6,67.8,63.0,59.3,94,79,49,29.91,29.75,21,5,21,0.08
2013-4-30,82.3,71.1,63.3,65.7,62.5,60.8,94,76,51,29.82,29.70,11,3,13,0.00
2013-5-1,85.8,74.2,65.2,66.4,64.6,62.1,94,74,50,29.90,29.74,14,4,17,0.00
2013-5-2,74.8,53.7,44.9,65.6,48.4,36.3,93,83,61,30.34,29.83,23,6,27,0.18
2013-5-3,67.1,53.4,41.1,36.2,31.4,25.8,74,48,23,30.36,30.10,15,4,22,0.00
2013-5-4,82.3,64.6,48.3,36.7,32.3,25.1,49,32,16,30.12,29.88,19,4,22,0.00
2013-5-5,75.2,63.4,47.6,48.0,40.6,31.8,65,44,27,30.14,29.97,12,3,14,0.00
2013-5-6,74.3,63.3,52.5,49.8,45.9,42.6,70,54,41,30.14,30.00,9,2,13,0.00
2013-5-7,83.8,69.8,56.3,54.7,49.5,46.6,75,51,29,30.07,29.92,14,4,16,0.00
2013-5-8,81.0,70.7,61.2,63.8,59.9,51.3,90,70,50,29.98,29.85,20,7,23,0.00
2013-5-9,76.2,68.5,62.6,68.3,64.2,60.3,95,87,74,29.96,29.83,18,5,22,0.09
2013-5-10,87.2,69.1,60.0,66.1,61.0,54.9,95,78,34,30.02,29.80,17,4,23,1.25
2013-5-11,77.8,67.5,58.9,61.5,56.6,49.0,96,71,40,30.14,29.98,12,3,16,0.00
2013-5-12,79.8,68.0,57.8,55.8,49.8,42.5,74,54,32,30.25,30.11,12,2,14,0.00
2013-5-13,83.8,71.2,56.5,54.4,47.7,40.0,65,45,27,30.25,30.12,11,2,14,0.00
2013-5-14,83.2,71.5,60.7,65.6,59.0,53.3,89,67,45,30.20,29.97,19,7,24,0.00
2013-5-15,84.1,72.3,63.1,70.4,66.7,61.0,96,84,60,30.06,29.77,23,8,30,0.66
2013-5-16,89.8,75.6,67.7,71.9,68.4,66.1,96,80,49,29.84,29.68,29,8,29,0.06
2013-5-17,91.7,79.8,71.9,72.8,70.2,67.7,91,74,48,29.85,29.74,21,7,21,0.00
2013-5-18,91.6,79.1,69.5,70.0,66.8,62.1,92,69,44,29.87,29.75,27,10,27,0.00
2013-5-19,89.2,78.5,70.3,70.8,67.5,64.0,88,70,52,29.80,29.67,21,9,23,0.00
2013-5-20,89.8,78.8,70.8,70.2,68.3,65.8,90,72,50,29.79,29.65,21,9,25,0.00
2013-5-21,85.3,76.6,67.8,72.8,68.8,58.8,89,77,61,29.84,29.67,22,6,26,0.00
2013-5-22,91.8,76.5,60.6,70.5,59.4,53.8,80,58,32,29.91,29.77,9,2,0,0.00
2013-5-23,86.2,78.0,72.1,71.2,69.9,68.4,92,77,59,30.00,29.83,17,5,18,0.00
2013-5-24,79.2,74.2,69.9,71.3,69.8,65.3,92,86,71,30.07,29.96,12,4,17,0.18
2013-5-25,70.6,70.5,70.3,69.7,69.6,69.4,97,97,97,30.10,30.08,8,4,0,0.52
2013-5-28,76.0,71.9,70.6,69.2,67.2,66.6,88,85,78,29.86,29.80,24,10,25,0.00
2013-5-31,88.6,84.8,78.2,73.8,72.4,71.5,81,67,59,29.74,29.71,17,8,21,0.00
2013-6-1,92.3,81.5,74.1,73.2,71.1,69.7,88,72,49,29.84,29.73,24,8,31,0.00
2013-6-2,86.6,79.6,71.5,72.1,65.1,56.7,93,64,39,29.98,29.84,15,3,17,1.33
2013-6-3,90.2,77.6,65.1,66.2,62.3,58.8,82,62,38,29.97,29.81,10,2,12,0.00
2013-6-4,89.3,79.1,68.9,67.4,64.9,60.3,92,64,39,29.87,29.76,17,6,19,0.00
2013-6-5,91.0,78.8,68.6,68.6,66.3,63.0,93,68,42,29.85,29.71,21,6,21,0.00
2013-6-6,94.9,80.4,68.7,70.5,66.3,61.9,93,65,37,29.88,29.74,14,3,18,0.00
2013-6-7,84.1,74.4,66.5,65.0,60.4,51.9,88,64,37,29.98,29.85,11,2,13,0.00
2013-6-8,85.8,76.2,64.9,69.1,61.0,54.1,76,60,49,29.91,29.76,14,3,16,0.00
2013-6-9,87.8,78.5,66.4,71.5,69.5,63.9,94,75,55,29.95,29.80,19,4,20,0.06
2013-6-10,94.9,80.4,69.2,72.4,67.7,61.4,95,69,35,29.97,29.88,12,4,17,0.00
2013-6-11,90.3,79.8,72.2,71.0,69.3,61.5,93,72,47,30.00,29.91,20,6,27,0.00
2013-6-12,91.6,80.0,72.5,72.3,70.2,68.2,92,74,48,30.02,29.91,17,6,17,0.00
2013-6-13,92.2,78.0,73.7,72.8,70.3,64.2,92,79,47,30.03,29.91,19,5,24,0.00
2013-6-14,87.0,78.6,72.1,73.2,71.2,69.3,92,79,62,29.97,29.88,12,2,15,0.00
2013-6-15,86.3,80.0,74.5,73.7,71.8,70.0,92,77,63,29.96,29.86,9,2,0,0.00
2013-6-16,92.6,82.0,72.5,71.5,69.2,65.1,92,68,41,29.99,29.86,15,5,19,0.00
2013-6-17,93.0,82.2,73.9,72.6,69.4,64.5,88,68,42,29.97,29.81,18,6,19,0.00
2013-6-18,93.3,79.8,68.1,73.7,69.7,66.3,95,73,43,29.98,29.84,15,3,18,0.05
2013-6-19,93.5,82.8,73.3,71.3,68.6,65.0,90,65,42,29.94,29.86,16,4,19,0.00
2013-6-20,93.5,82.3,72.4,70.8,67.7,62.6,89,64,39,30.01,29.90,18,8,22,0.00
2013-6-21,92.8,83.0,73.8,71.6,67.3,58.6,90,63,35,30.03,29.92,19,8,23,0.00
2013-6-22,93.6,82.6,72.5,70.4,67.1,60.5,90,63,36,30.01,29.84,20,7,21,0.00
2013-6-23,92.4,81.9,73.4,71.2,65.9,57.6,90,62,36,29.95,29.85,20,7,28,0.00
2013-6-24,94.2,82.4,73.3,71.2,68.1,64.0,90,65,39,29.99,29.85,24,8,24,0.00
2013-6-25,95.5,83.6,75.2,71.1,67.7,62.3,87,62,35,29.96,29.82,22,9,29,0.00
2013-6-26,96.7,84.2,73.9,71.7,68.3,62.8,86,62,34,29.93,29.83,21,8,25,0.00
2013-6-27,100.9,85.0,73.4,71.0,64.6,53.8,86,56,23,29.99,29.86,18,5,22,0.00
2013-6-28,104.0,87.8,73.1,70.7,65.4,57.7,88,52,25,29.96,29.76,14,4,18,0.00
2013-6-29,104.3,91.2,77.6,69.7,62.0,57.6,57,40,23,29.83,29.69,10,3,14,0.00
2013-6-30,90.9,81.0,67.7,69.6,64.3,57.5,91,60,37,29.92,29.75,17,4,18,0.09
2013-7-1,88.2,79.1,70.5,66.3,55.9,49.0,68,46,30,29.99,29.84,15,3,18,0.00
2013-7-2,90.2,79.2,67.7,59.6,52.2,45.8,63,41,24,30.06,29.93,11,2,13,0.00
2013-7-3,94.2,80.4,69.7,57.2,49.7,44.0,57,36,19,30.01,29.87,11,2,14,0.00
2013-7-4,92.5,80.3,68.4,66.3,57.9,45.9,88,51,27,29.97,29.85,11,3,12,0.00
2013-7-6,94.9,90.5,83.6,66.7,61.1,58.1,57,38,31,29.88,29.77,11,3,15,0.00
2013-7-7,96.7,82.6,72.0,72.0,68.7,63.5,92,66,37,29.94,29.83,17,3,24,0.00
2013-7-8,84.3,76.1,72.6,73.0,71.2,70.1,94,85,66,30.06,29.92,13,4,16,0.01
2013-7-9,96.0,91.1,82.7,71.1,67.4,64.7,67,47,38,30.06,29.96,13,5,18,0.00
2013-7-10,97.8,84.3,72.3,72.0,68.6,63.2,93,63,34,30.06,29.88,18,5,19,0.00
2013-7-11,97.8,84.9,73.3,72.2,66.8,59.6,88,59,31,29.97,29.83,15,5,17,0.00
2013-7-12,99.2,87.7,73.7,68.8,63.8,58.0,81,48,27,29.92,29.83,14,4,19,0.00
2013-7-13,101.0,88.3,75.0,68.0,62.6,55.8,70,46,24,29.94,29.79,13,3,15,0.00
2013-7-14,96.1,82.7,75.4,68.3,63.8,57.9,77,54,29,29.88,29.80,25,4,25,0.00
2013-7-15,75.6,70.5,68.1,71.7,68.3,66.1,97,93,77,30.01,29.85,9,2,15,1.20
2013-7-16,86.1,74.1,69.4,72.1,69.5,66.9,98,87,53,30.10,29.99,12,2,17,0.03
2013-7-17,85.2,73.2,69.8,72.9,69.9,67.9,97,90,63,30.15,30.07,15,2,22,0.46
2013-7-18,91.3,77.4,69.3,73.3,69.3,65.7,98,79,45,30.15,29.97,16,2,23,0.01
2013-7-19,93.7,80.1,70.5,71.3,67.9,62.4,95,70,39,30.05,29.88,9,3,13,0.00
2013-7-20,93.5,80.0,70.4,71.2,68.7,62.8,95,71,39,29.96,29.81,12,4,16,0.00
2013-7-21,92.0,80.2,71.5,74.5,71.3,67.9,95,76,47,29.92,29.83,17,5,20,0.00
2013-7-22,93.5,82.8,75.5,73.7,71.6,68.5,89,71,46,29.95,29.85,18,8,22,0.00
2013-7-23,93.9,83.2,75.3,73.2,69.4,62.4,86,66,37,29.97,29.83,17,8,21,0.00
2013-7-24,82.1,78.2,76.0,73.6,72.8,71.8,88,84,73,29.89,29.86,15,8,18,0.00
2013-7-25,96.5,90.2,81.1,70.1,66.5,61.1,68,47,36,29.99,29.91,10,3,12,0.00
2013-7-26,96.9,84.4,73.8,74.9,69.6,65.9,90,64,38,29.98,29.82,18,6,23,0.00
2013-7-27,84.0,83.2,82.7,74.8,74.6,74.4,77,76,74,29.92,29.86,20,7,23,0.00
2013-8-5,98.1,93.8,84.6,68.9,65.2,61.1,59,40,31,29.94,29.83,16,6,21,0.00
2013-8-6,98.8,85.4,73.3,72.3,68.4,60.1,89,61,29,29.91,29.76,20,7,20,0.00
2013-8-7,100.2,86.3,74.9,73.1,68.4,57.8,86,60,27,29.88,29.73,19,7,24,0.00
2013-8-8,99.5,85.6,73.7,73.0,67.1,56.9,87,59,27,29.86,29.73,16,6,19,0.00
2013-8-9,100.5,85.2,71.8,71.3,63.7,51.2,93,56,20,29.93,29.82,15,3,18,0.00
2013-8-10,99.5,86.5,74.8,71.2,67.1,57.1,81,55,27,30.01,29.88,17,4,23,0.00
2013-8-11,96.8,82.7,74.4,72.3,69.6,63.4,87,67,35,30.04,29.92,12,3,18,0.24
2013-8-12,95.0,82.2,71.1,71.3,68.2,64.2,93,66,38,30.04,29.91,13,4,19,0.00
2013-8-13,98.8,86.0,74.4,71.7,67.1,59.6,88,58,28,30.00,29.84,15,5,18,0.00
2013-8-14,102.1,83.8,75.6,70.8,68.0,62.3,81,61,29,29.96,29.85,15,5,23,0.00
2013-8-15,87.6,76.3,71.8,73.0,70.8,69.0,93,84,60,29.99,29.90,9,1,0,0.00
2013-8-19,94.1,88.7,79.6,62.7,60.8,58.5,50,39,34,30.02,29.88,9,2,0,0.00
2013-8-20,94.3,81.2,69.9,68.5,63.5,56.8,88,58,30,30.00,29.90,11,4,14,0.00
2013-8-21,94.8,80.4,70.9,72.9,68.0,64.5,91,69,38,30.05,29.93,15,4,21,0.00
2013-8-22,93.8,82.9,70.9,73.5,68.7,66.0,93,65,42,30.06,29.89,9,2,0,0.00
2013-8-23,96.0,84.2,71.5,72.0,67.3,63.0,90,60,35,29.99,29.85,9,2,12,0.00
2013-8-24,97.1,85.6,74.6,70.1,67.2,63.7,80,56,34,30.01,29.89,11,3,14,0.00
2013-8-25,93.0,83.1,72.8,71.1,68.4,65.8,85,63,43,30.05,29.96,14,3,18,0.00
2013-8-26,89.6,78.1,70.6,70.7,69.2,67.4,93,75,50,30.10,29.99,11,3,15,0.01
2013-8-27,83.6,75.3,70.8,73.1,69.2,62.5,95,83,51,30.09,30.00,14,3,16,0.03
2013-8-28,93.7,80.9,71.6,72.3,68.2,64.5,95,69,40,30.09,29.97,11,3,14,0.01
2013-8-29,99.1,85.2,74.0,69.1,65.8,61.1,84,56,30,30.06,29.91,13,3,15,0.00
2013-8-30,101.2,87.6,76.0,66.7,63.2,59.1,66,47,26,29.99,29.83,11,3,0,0.00
2013-8-31,100.7,86.6,74.2,68.9,66.2,63.3,76,53,31,29.90,29.76,13,5,16,0.00
2013-9-1,99.0,85.7,73.3,71.2,66.7,63.1,83,56,33,29.88,29.76,14,4,19,0.00
2013-9-2,100.1,83.9,74.3,71.9,68.1,62.9,88,62,30,29.94,29.79,15,4,17,0.02
2013-9-3,99.8,84.1,71.1,70.6,66.1,62.1,88,59,31,29.97,29.84,10,2,0,0.00
2013-9-4,97.0,83.4,74.0,73.4,67.6,62.8,87,61,36,30.00,29.88,16,4,21,0.06
2013-9-5,95.5,82.3,71.9,71.4,67.8,62.8,89,65,36,30.07,29.95,11,3,12,0.00
2013-9-6,94.5,83.0,73.1,71.8,68.6,64.7,88,65,39,30.06,29.91,11,3,13,0.00
2013-9-7,96.0,80.3,72.3,73.4,69.3,64.0,92,72,36,30.00,29.86,18,3,24,0.01
2013-9-8,91.6,77.6,69.5,72.5,69.5,65.9,96,78,44,29.96,29.85,16,2,17,0.00
2013-9-9,75.1,71.8,69.9,70.1,68.3,67.0,95,89,77,29.94,29.90,9,2,0,0.00
2013-9-10,89.7,81.1,73.7,71.6,69.7,67.7,87,70,49,30.03,29.95,19,4,25,0.01
2013-9-11,92.0,79.0,72.0,72.4,68.1,55.6,95,74,31,30.08,29.96,11,2,14,0.00
2013-9-13,82.9,82.1,81.2,61.4,61.0,60.5,51,49,47,29.84,29.82,7,3,0,0.00
2013-9-14,93.4,82.6,71.2,69.2,63.8,58.6,75,55,35,29.91,29.80,13,3,15,0.00
2013-9-15,90.1,80.4,70.9,72.1,68.1,64.6,91,68,44,29.98,29.88,12,2,15,0.00
2013-9-16,88.4,79.1,72.6,72.8,70.1,67.7,92,75,54,30.02,29.92,12,2,19,0.02
2013-9-17,91.4,78.9,71.8,73.3,70.1,66.9,96,77,47,30.03,29.89,11,2,16,0.00
2013-9-18,92.4,80.0,72.2,72.8,68.9,63.1,95,72,40,29.99,29.84,13,4,21,0.00
2013-9-19,89.6,78.7,73.4,73.3,71.0,68.8,93,79,51,29.92,29.78,13,3,16,0.44
2013-9-20,75.4,72.5,68.6,74.5,71.3,67.4,97,96,93,29.85,29.74,16,2,16,1.86
2013-9-21,81.5,71.0,64.3,67.9,59.9,47.3,97,72,37,29.93,29.82,13,4,15,0.01
2013-9-22,81.5,70.0,58.9,54.8,49.7,42.9,74,50,26,29.91,29.77,9,2,13,0.00
2013-9-23,88.7,74.8,62.2,56.3,51.7,47.9,69,46,29,29.83,29.73,8,1,0,0.00
2013-9-24,92.0,79.8,68.0,61.6,56.4,51.3,60,46,32,29.90,29.80,9,2,13,0.00
2013-9-25,94.0,81.7,70.9,63.8,59.2,55.9,62,48,33,29.87,29.73,10,2,12,0.00
2013-9-26,88.7,79.2,70.4,71.1,60.9,52.5,81,55,32,29.86,29.77,18,7,18,0.00
2013-9-27,88.3,78.0,73.0,74.8,72.2,69.7,91,83,62,29.88,29.78,17,6,18,0.00
2013-9-28,87.3,78.1,74.1,76.3,72.8,71.0,94,84,59,29.95,29.83,20,5,23,0.28
2013-9-29,73.9,67.2,61.8,71.6,64.1,60.6,97,90,74,30.04,29.92,9,2,14,0.31
2013-9-30,88.0,72.9,61.7,62.7,58.4,52.8,91,65,31,29.95,29.79,10,2,0,0.00
2013-10-1,87.3,76.3,68.8,71.2,66.7,55.0,96,74,50,29.90,29.80,15,4,15,0.00
2013-10-2,87.6,78.1,72.7,73.0,70.4,67.6,93,79,53,29.93,29.82,15,4,16,0.00
2013-10-3,87.8,79.0,72.7,71.9,70.0,66.1,93,75,52,29.90,29.79,16,6,20,0.00
2013-10-4,87.7,78.0,71.5,70.9,68.9,66.9,91,75,52,29.88,29.80,19,7,22,0.00
2013-10-5,87.6,73.2,59.9,70.1,63.2,40.8,94,72,48,30.05,29.83,20,4,21,0.00
2013-10-6,76.8,62.8,51.2,52.8,44.9,33.7,95,58,22,30.15,30.02,11,2,16,0.48
2013-10-7,83.2,68.7,53.5,46.3,40.9,35.2,64,38,21,30.17,30.04,8,2,0,0.00
2013-10-8,82.7,70.7,58.0,51.2,46.5,41.8,70,43,30,30.08,29.96,10,4,14,0.00
2013-10-9,80.5,69.4,59.1,60.9,55.7,46.9,87,63,44,30.04,29.94,14,5,17,0.00
2013-10-10,82.2,70.9,61.3,66.1,62.2,58.2,95,76,53,30.02,29.86,19,5,19,0.00
2013-10-11,85.3,75.6,69.2,72.4,69.1,64.4,93,81,61,29.93,29.81,20,6,20,0.00
2013-10-12,88.8,78.9,73.8,74.1,71.6,69.4,95,80,55,29.98,29.86,13,4,17,0.00
2013-10-13,74.7,70.0,67.2,70.7,67.9,65.7,97,93,86,30.13,29.98,15,2,18,4.40
2013-10-14,78.1,71.8,69.3,73.3,69.8,68.4,98,94,81,30.09,29.90,16,4,18,5.10
2013-10-15,80.6,71.7,56.3,70.6,67.3,54.3,95,87,64,29.99,29.85,20,6,21,0.00
2013-10-16,58.3,54.5,51.3,56.5,53.3,50.3,97,96,90,30.09,29.94,9,3,14,0.77
2013-10-17,57.9,52.6,48.7,55.3,49.7,46.2,92,90,78,30.15,30.07,5,1,0,0.01
2013-10-23,77.9,68.6,64.0,44.2,43.3,42.2,48,40,28,30.12,30.08,9,5,0,0.00
2013-10-24,80.3,68.5,60.4,50.0,45.4,42.6,56,44,29,30.22,30.11,13,4,14,0.00
2013-10-25,75.6,66.8,56.2,60.5,56.3,49.6,88,70,56,30.31,30.19,13,3,15,0.00
2013-10-26,76.9,67.5,61.6,65.7,61.5,58.8,94,82,62,30.22,30.05,16,6,19,0.02
2013-10-27,71.3,65.2,61.3,64.0,61.8,58.8,96,89,74,30.11,30.00,13,2,20,0.60
2013-10-28,78.5,69.4,62.5,68.1,64.8,61.0,97,86,65,30.08,29.96,18,5,20,0.00
2013-10-29,68.9,68.5,68.3,66.2,65.4,64.9,92,90,88,30.03,30.02,13,8,17,0.00
2013-10-30,78.6,74.6,71.2,72.8,71.3,69.4,96,90,78,29.94,29.78,19,5,21,0.37
2013-10-31,77.0,70.4,63.9,70.5,54.9,34.7,97,66,23,29.88,29.71,20,4,24,0.41
2013-11-1,81.4,67.4,57.7,55.2,42.9,35.8,69,43,20,30.07,29.82,17,5,21,0.00
2013-11-2,70.0,60.7,51.0,44.5,39.1,31.7,66,47,26,30.30,30.07,12,2,15,0.00
2013-11-3,66.6,56.9,47.9,43.9,38.9,36.6,67,52,36,30.24,30.03,12,3,14,0.00
2013-11-4,63.2,59.6,56.4,61.2,56.6,51.0,96,90,77,30.06,29.95,18,3,20,0.05
2013-11-5,76.2,67.7,62.3,67.8,64.6,60.8,97,91,69,30.01,29.89,13,2,16,0.00
2013-11-6,69.7,58.4,49.1,67.6,54.7,42.1,96,88,66,30.34,29.96,15,3,18,0.55
2013-11-7,61.3,49.0,39.7,42.4,37.9,33.6,87,68,40,30.50,30.33,9,1,14,0.00
2013-11-8,60.5,56.2,53.2,44.9,42.1,37.1,73,60,42,30.23,30.19,6,1,0,0.00
2013-11-9,67.3,58.1,51.9,57.0,51.1,43.4,86,78,67,30.20,30.12,13,3,14,0.00
2013-11-10,66.1,61.2,57.7,57.4,56.0,54.8,93,83,71,30.31,30.18,5,0,0,0.00
2013-11-11,74.8,62.2,52.8,56.3,53.2,49.1,89,74,51,30.28,30.16,8,1,0,0.00
2013-11-12,59.2,51.5,40.2,53.3,44.8,25.8,92,79,55,30.65,30.24,18,3,20,0.00
2013-11-13,52.6,42.6,33.7,30.6,26.9,24.4,70,54,34,30.69,30.44,8,2,0,0.00
2013-11-14,59.6,47.6,36.7,46.3,33.3,25.0,75,58,39,30.44,30.07,15,5,19,0.00
2013-11-15,75.8,62.0,48.9,58.8,53.5,46.3,94,75,53,30.07,29.86,12,2,14,0.00
2013-11-16,76.6,69.2,61.7,68.7,63.8,57.3,92,83,70,29.90,29.72,0,0,0,0.00
2013-11-17,87.4,76.2,68.7,69.6,64.5,52.8,93,71,36,29.92,29.74,9,1,12,0.00
2013-11-18,71.1,65.2,56.5,65.7,55.4,48.4,90,71,58,30.10,29.91,9,2,0,0.00
2013-11-19,69.9,61.3,53.9,52.2,47.0,42.3,79,61,41,30.15,29.99,9,2,0,0.00
2013-11-20,70.5,61.2,55.9,62.6,55.5,48.0,95,82,71,30.01,29.89,13,3,14,0.00
2013-11-21,75.1,70.2,64.1,69.9,67.5,62.6,97,91,80,30.02,29.91,17,3,20,0.02
2013-11-22,70.4,41.4,32.4,68.9,40.2,31.4,96,96,87,30.42,30.01,16,5,19,0.46
2013-11-23,38.2,35.0,32.6,37.3,34.0,31.6,97,96,94,30.52,30.40,11,1,13,0.05
2013-11-24,38.8,35.3,31.4,36.8,32.5,29.4,96,89,76,30.53,30.36,12,2,16,0.20
2013-11-25,37.2,34.3,31.4,36.4,33.2,30.4,97,96,92,30.38,30.13,9,0,13,0.70
2013-11-26,49.1,39.8,35.0,36.7,32.9,28.0,92,77,53,30.40,30.16,12,2,19,0.00
2013-11-27,48.3,39.3,30.0,29.2,24.6,19.9,80,57,34,30.53,30.38,1,0,0,0.00
2013-11-28,55.1,42.1,34.2,29.4,25.8,22.9,67,53,33,30.48,30.36,0,0,0,0.00
2013-11-29,59.4,48.5,38.4,48.7,42.1,25.1,96,79,54,30.53,30.37,2,0,0,0.00
2013-11-30,63.0,54.6,48.0,55.7,49.6,43.9,91,83,76,30.40,30.19,3,0,0,0.00
2013-12-1,68.2,60.0,53.8,59.1,55.6,52.4,96,86,71,30.21,29.99,9,1,0,0.00
2013-12-3,83.7,73.8,65.3,47.1,44.0,36.6,51,36,20,29.70,29.58,14,5,16,0.00
2013-12-4,71.5,66.5,62.5,64.0,58.1,45.2,91,75,47,29.76,29.64,15,4,17,0.00
2013-12-5,66.3,43.6,29.1,64.1,38.9,24.6,96,83,70,30.11,29.75,12,1,17,0.00
2013-12-6,32.6,29.6,26.5,30.0,26.6,22.0,95,88,82,30.49,30.07,10,0,14,0.02
2013-12-7,27.7,24.5,22.3,22.9,20.2,17.8,91,83,78,30.53,30.34,3,0,0,0.00
2013-12-8,52.2,34.2,24.7,43.1,30.7,22.4,94,87,70,30.38,30.06,6,0,0,0.00
2013-12-9,36.6,34.0,31.0,35.7,33.0,29.8,97,96,94,30.42,30.09,10,3,14,0.05
2013-12-10,44.0,37.6,24.9,29.8,24.2,21.5,95,59,45,30.55,30.39,7,0,13,0.01
2013-12-11,55.6,41.0,29.7,33.5,28.3,23.5,79,62,37,30.59,30.36,1,0,0,0.00
2013-12-12,50.5,39.6,30.1,35.7,31.0,26.0,85,72,53,30.62,30.38,1,0,0,0.00
2013-12-13,49.7,44.3,41.0,48.9,40.4,33.2,97,87,72,30.37,29.92,17,1,18,0.19
2013-12-14,48.2,44.3,38.9,47.4,39.1,30.7,97,82,67,30.37,29.89,13,2,17,0.01
2013-12-15,60.8,45.1,33.3,34.2,30.6,27.0,79,59,33,30.44,30.30,1,0,0,0.00
2013-12-16,66.2,51.7,42.0,37.3,32.6,28.7,64,49,32,30.33,30.20,0,0,0,0.00
2013-12-17,70.8,55.6,42.7,42.2,37.6,31.0,74,52,32,30.33,30.23,9,2,0,0.00
2013-12-18,67.0,56.9,48.8,54.2,47.5,37.7,94,72,55,30.30,30.07,18,3,20,0.00
2013-12-19,71.4,62.5,54.3,60.7,56.8,49.3,93,82,65,30.07,29.78,23,2,27,0.00
2013-12-20,70.9,66.0,62.0,65.8,62.6,60.0,93,89,79,29.83,29.60,0,0,0,0.00
2013-12-21,69.3,53.4,41.1,65.8,45.9,37.1,97,79,44,29.82,29.56,16,2,20,0.24
2013-12-22,55.5,46.0,36.1,39.4,35.2,28.7,91,67,50,30.38,29.81,13,3,18,0.00
2013-12-23,55.2,39.2,28.0,31.2,28.2,24.9,88,67,35,30.57,30.38,9,1,0,0.00
2013-12-24,56.8,44.0,33.4,36.5,29.6,25.7,82,60,32,30.57,30.29,16,4,17,0.00
2013-12-25,57.5,46.5,37.8,47.7,41.8,36.1,96,84,69,30.42,30.25,9,1,12,0.00
2013-12-26,52.6,43.7,35.8,41.5,36.9,32.7,89,77,63,30.47,30.34,8,1,0,0.00
2013-12-27,53.6,47.5,42.2,42.2,40.1,37.8,93,76,59,30.47,30.35,7,0,0,0.01
2013-12-28,59.2,49.4,41.7,45.0,41.5,37.2,88,75,55,30.36,30.02,12,2,13,0.01
2013-12-29,59.8,47.4,30.9,50.5,43.3,28.7,93,86,70,30.29,29.97,13,4,15,0.00
2013-12-30,40.4,34.4,29.7,29.7,26.5,23.3,93,73,58,30.44,30.25,11,2,15,0.00
2013-12-31,54.6,41.5,33.6,33.0,29.6,26.2,85,64,42,30.50,30.28,12,1,0,0.00
2014-1-1,63.9,49.7,38.3,53.5,41.2,29.1,91,73,64,30.28,30.00,23,1,28,0.00
2014-1-2,51.5,40.9,31.0,49.0,28.5,22.8,93,63,40,30.48,30.09,2,0,0,0.00